Regional Weather Roundup
Issued by NWS

Home | Current Version | Previous Version | Text Only | Print | Product List | Glossary Off
Versions: 1 2 3 4 5 6 7 8 9 10 11 12 13 14 15 16 17 18 19 20 21 22 23 24 25 26 27 28 29 30 31 32 33 34 35 36 37 38 39 40 41 42 43 44 45 46 47 48 49 50

000
ASUS43 KMKX 301621
RWRWI

WISCONSIN REGIONAL WEATHER ROUNDUP
NATIONAL WEATHER SERVICE MILWAUKEE/SULLIVAN WI
1100 AM CDT MON MAY 30 2016

NOTE: "FAIR" INDICATES FEW OR NO CLOUDS BELOW 12,000 FEET WITH NO
SIGNIFICANT WEATHER AND/OR OBSTRUCTIONS TO VISIBILITY.

WIZ001-002-006>008-014>016-023>028-301700-
NORTHWEST WISCONSIN

CITY           SKY/WX    TMP DP  RH WIND       PRES   REMARKS
SUPERIOR ARPT  SUNNY     77  51  41 W6        29.96F
ASHLAND        SUNNY     75  52  44 W10G16    29.98S
HAYWARD        SUNNY     73  50  44 SW3       30.00F
SIREN          SUNNY     76  52  43 SW10      30.00S
CUMBERLAND     CLOUDY    72  52  49 SW10      30.01F
RICE LAKE      CLOUDY    74  51  44 SW6       30.03S
CHETEK         CLOUDY    74  56  53 SW7       30.02S
LADYSMITH      SUNNY     74  53  47 W6        30.03S
EAU CLAIRE     MOSUNNY   76  55  48 W7        30.01F
MENOMONIE      MOSUNNY   77  58  50 S7        30.02S
NEW RICHMOND   MOSUNNY   72  57  57 SW5       30.01F
OSCEOLA        PTSUNNY   73  59  62 S3        30.03F
$$

WIZ003>005-009-010-017-018-301700-
NORTH CENTRAL WISCONSIN

CITY           SKY/WX    TMP DP  RH WIND       PRES   REMARKS
MANITOWISH WTR NOT AVBL
ARBOR VITAE    SUNNY     72  53  52 NW8G16    30.01S
WOODRUFF       SUNNY     72  53  52 NW8G16    30.01S
RHINELANDER    MOSUNNY   72  50  45 W9G16     30.02F
EAGLE RIVER      N/A     70  47  43 NW8G16    30.01S
LAND O LAKES   SUNNY     70  49  47 W8        30.01S
PHILLIPS       SUNNY     72  51  47 NW9       30.01F
TOMAHAWK       SUNNY     71  49  46 W6        30.03S
MEDFORD        CLOUDY    71  48  44 W8        30.03S
MERRILL        SUNNY     71  51  49 NW8       30.02F
$$

WIZ029-030-035-036-043>047-301700-
CENTRAL WISCONSIN

CITY           SKY/WX    TMP DP  RH WIND       PRES   REMARKS
WAUSAU         SUNNY     74  49  41 W10       30.01S
MOSINEE        SUNNY     72  50  46 W8        30.04S
MARSHFIELD     MOSUNNY   74  49  41 W8        30.04R
STEVENS POINT  SUNNY     73  48  41 SW7       30.03S
WAUPACA        SUNNY     78  46  31 W7        30.02S
WAUTOMA        SUNNY    N/A N/A N/A W8        30.03S
WISC RAPIDS    SUNNY     77  44  30 W6        30.05R
CAMP DOUGLAS   CLOUDY    74  63  68 NW6       30.04S
$$

WIZ011>013-019>022-031-037>040-048>050-301700-
NORTHEAST WISCONSIN

CITY           SKY/WX    TMP DP  RH WIND       PRES   REMARKS
ANTIGO         MOSUNNY   70  54  56 NW14      30.03F
SHAWANO        SUNNY     77  49  37 NW9       30.01S
OCONTO         SUNNY     74  52  45 NW7       30.00R
STURGEON BAY   NOT AVBL
GREEN BAY      SUNNY     76  56  49 NW9       30.01S
MANITOWOC      MOSUNNY   75  58  55 W7        30.01F
APPLETON       MOSUNNY   73  55  53 W7        30.01S
CLINTONVILLE   SUNNY     75  45  33 NW6       30.01S
OSHKOSH        SUNNY     75  58  55 NW6       30.02S
$$

WIZ032>034-041-042-053>061-301700-
SOUTHWEST WISCONSIN

CITY           SKY/WX    TMP DP  RH WIND       PRES   REMARKS
LA CROSSE      SUNNY     76  57  51 S6        30.03F
SPARTA         MOSUNNY   74  58  57 SW6       30.05F
VIROQUA        SUNNY     75  53  45 W7        30.07S
BOSCOBEL       SUNNY     80  52  37 E3        30.06S HX  80
PRAIRIE DU CHI MOSUNNY   75  54  48 CALM      30.06R
PLATTEVILLE    SUNNY     77  49  38 NW7       30.07S
$$

WIZ056-057-062-063-064-067-068-301700-
SOUTH CENTRAL WISCONSIN

CITY           SKY/WX    TMP DP  RH WIND       PRES   REMARKS
REEDSBURG      SUNNY     75  53  45 NW6       30.05S
BARABOO/DELLS  SUNNY     76  42  28 N7        30.05S
LONE ROCK      SUNNY     77  56  48 W8        30.06R
MINERAL POINT  SUNNY     77  46  33 NW9       30.07S
MADISON        MOSUNNY   76  59  55 NW7       30.04S
MIDDLETON      SUNNY     77  57  50 NW9       30.06R
WATERTOWN      SUNNY     76  61  61 NW6       30.03S
MONROE         SUNNY     77  50  38 NW9       30.06R
JANESVILLE     MOSUNNY   79  57  47 NW6       30.04R HX  80
$$

WIZ051-052-058>065-066-070>072-301700-
SOUTHEAST WISCONSIN

CITY           SKY/WX    TMP DP  RH WIND       PRES   REMARKS
MILWAUKEE      MOSUNNY   78  59  51 NW10      30.02R
WAUKESHA       SUNNY     75  59  57 W9        30.04S
MILWAUKEE/TIMM SUNNY     77  55  47 MISG      30.03R
RACINE         MOSUNNY   77  60  55 CALM      30.04R
BURLINGTON     MOSUNNY   77  58  50 W7        30.04R
KENOSHA        SUNNY     79  60  52 NW9       30.03R HX  80
FOND DU LAC    MOSUNNY   75  60  59 NW8       30.03R
SHEBOYGAN      SUNNY     76  57  51 W8        30.02R
WEST BEND      PTSUNNY   73  57  56 NW9G16    30.03S
JUNEAU         PTSUNNY   74  58  57 NW6       30.04S
$$

LSZ147-162-301700-
LAKE SUPERIOR

STATION/POSITION TIME  TEMP    WIND        PRES    WAVE
                       AIR SEA DIR/SP/G            HT/PER
                 (UTC) (F)     (DEG/KT/KT) (MB)    (FT/S)
W MID LAKE BUOY  1550   44 38  240/ 10/ 12 1014.1R   1/ 4
DEVILS ISLAND    1600   57     230/ 13/ 15 1014.5S
SAXON HARBOR     1540   72     240/  6/ 13 1014.6S
$$

LMZ867-665-643>646-301700-
LAKE MICHIGAN

STATION/POSITION TIME  TEMP    WIND        PRES    WAVE
                       AIR SEA DIR/SP/G            HT/PER
                 (UTC) (F)     (DEG/KT/KT) (MB)    (FT/S)
CHAMBERS ISLAND  1500   70     220/  4/  8 1015.6R
N MID LAKE BUOY  1550   52 48  210/ 10/ 10 1014.8R   1
NORTHPORT PIER   1500   70     300/  3/ 11 1014.9R
KEWAUNEE LAKESHO 1600   74     300/  8/ 13 1015.3S
SHEBOYGAN LAKESH 1600   63     150/  5/  6 1016.6R
PORT WASHINGTON  1540   70     180/  7/  8 1016.9S
S MID LAKE BUOY  1550   60 54  180/  2/  2 1016.5R   0
KENOSHA   LAKESH 1600   69     150/  8/ 10 1016.6R
$$

TC  - TEMPERATURE IN CELSIUS
VSB - VISIBILITY IN STATUTE MILES
WCI - WIND CHILL INDEX
HX  - HEAT INDEX





USA.gov is the U.S. government's official web portal to all federal, state and local government web resources and services.